User: anonymous   Login
Location: Huesca
(42.1318°N, 0.4078°W)
Time: 14:48:39
(UTC+02:00)
Language:

Tiros 1 - Orbit

View from above orbital plane
View from above orbital plane
View from above satellite
View from above satellite

Ground track
Ground track

The orbit data is extracted from the following two-line orbital elements,

1    29U 60002B   24201.14544088  .00002104  00000-0  32745-3 0  9993
2    29  48.3781  97.5484 0023056 145.9088 214.3311 14.76492853438999
Epoch (UTC): 19 July 2024 03:29:26
Eccentricity: 0.0023056
inclination: 48.3781°
perigee height: 624 km
apogee height: 656 km
right ascension of ascending node: 97.5484°
argument of perigee: 145.9088°
revolutions per day: 14.76492853
mean anomaly at epoch: 214.3311°
orbit number at epoch: 43899

The dashed part of the orbit path shows where the satellite is in the earth's shadow,  

DLR